Emporia, KS

7:51 AM CDT on May 30, 2017 (GMT -0500)
Emporia Municipal

Weather History for KEMP - September, 2012

Change the Weather History Date:

Sunday, September 16, 2012

  Actual Average Record
Temperature  
Mean Temperature 67 °F 69 °F  
Max Temperature 74 °F 81 °F 97 °F (2006)
Min Temperature 60 °F 57 °F 46 °F (1999)
Degree Days  
Heating Degree Days 0 1  
Month to date heating degree days 14 7  
Since 1 July heating degree days 14 8  
Cooling Degree Days 2 5  
Month to date cooling degree days 136 115  
Year to date cooling degree days 1845 1323  
Growing Degree Days 18 (Base 50)    
Moisture  
Dew Point 63 °F    
Average Humidity 84    
Maximum Humidity 100    
Minimum Humidity 68    
Precipitation  
Precipitation 0.00 in 0.07 in 0.91 in (2016)
Month to date precipitation 2.19 2.07  
Year to date precipitation 16.56 28.68  
Sea Level Pressure  
Sea Level Pressure 30.05 in    
Wind  
Wind Speed 6 mph (SE)    
Max Wind Speed 12 mph    
Max Gust Speed 14 mph    
Visibility 7 miles    
Events Fog    
T = Trace of Precipitation, MM = Missing Value Source: NWS Daily Summary

Daily Weather History Graph

Daily Weather History Graph

Search for Another Location

Airport or City:

Trip Planner

Search our weather history database for the weather conditions in past years. The results will help you decide how hot, cold, wet, or windy it might be!

Date:

Astronomy

Sep. 16, 2012 Rise Set
Actual Time 7:07 AM CDT 7:30 PM CDT
Civil Twilight 6:41 AM CDT 7:56 PM CDT
Nautical Twilight 6:10 AM CDT 8:27 PM CDT
Astronomical Twilight 5:38 AM CDT 8:59 PM CDT
Moon 7:46 AM CDT (9/16) 7:37 PM CDT (9/16)
Length of Visible Light 13h 15m
Length of Day
12h 22m
New Moon, 0% of the Moon is Illuminated
Sep 16
New Moon
Sep 22
First Quarter
Sep 29
Full
Oct 8
Last Quarter
Oct 15
New

Hourly Weather History & Observations

Time (CDT) Temp. Dew Point Humidity Pressure Visibility Wind Dir Wind Speed Gust Speed Precip Events Conditions
12:21 AM 64.4 °F 62.6 °F 94% 30.11 in 10.0 mi ESE 5.8 mph - N/A   Overcast
12:53 AM 64.0 °F 62.1 °F 93% 30.11 in 10.0 mi ESE 5.8 mph - N/A   Overcast
1:53 AM 64.0 °F 62.1 °F 93% 30.10 in 10.0 mi SE 3.5 mph - N/A   Overcast
2:22 AM 62.6 °F 62.6 °F 100% 30.10 in 10.0 mi SE 3.5 mph - N/A   Overcast
2:53 AM 63.0 °F 62.1 °F 97% 30.09 in 10.0 mi SE 3.5 mph - N/A   Overcast
3:06 AM 62.6 °F 62.6 °F 100% 30.09 in 10.0 mi SE 3.5 mph - N/A   Overcast
3:32 AM 62.6 °F 62.6 °F 100% 30.09 in 3.0 mi SE 3.5 mph - N/A   Overcast
3:37 AM 62.6 °F 62.6 °F 100% 30.09 in 1.8 mi SE 4.6 mph - N/A   Overcast
3:46 AM 62.6 °F 62.6 °F 100% 30.09 in 1.2 mi SE 4.6 mph - N/A   Overcast
3:53 AM 63.0 °F 63.0 °F 100% 30.07 in 1.2 mi SE 5.8 mph - N/A   Overcast
4:01 AM 62.6 °F 62.6 °F 100% 30.09 in 2.0 mi SE 5.8 mph - N/A   Overcast
4:13 AM 62.6 °F 62.6 °F 100% 30.08 in 3.0 mi SE 5.8 mph - N/A   Overcast
4:22 AM 62.6 °F 62.6 °F 100% 30.08 in 2.5 mi SE 4.6 mph - N/A   Overcast
4:53 AM 63.0 °F 63.0 °F 100% 30.07 in 4.0 mi SSE 5.8 mph - N/A   Overcast
5:49 AM 62.6 °F 62.6 °F 100% 30.07 in 9.0 mi SE 4.6 mph - N/A   Overcast
5:53 AM 63.0 °F 63.0 °F 100% 30.06 in 9.0 mi SE 3.5 mph - N/A   Overcast
6:28 AM 62.6 °F 62.6 °F 100% 30.07 in 7.0 mi SE 4.6 mph - N/A   Overcast
6:53 AM 63.0 °F 62.1 °F 97% 30.06 in 7.0 mi SE 4.6 mph - N/A   Overcast
7:53 AM 63.0 °F 63.0 °F 100% 30.07 in 3.0 mi SE 4.6 mph - N/A   Overcast
8:24 AM 62.6 °F 62.6 °F 100% 30.08 in 1.8 mi SE 5.8 mph - N/A   Overcast
8:36 AM 62.6 °F 62.6 °F 100% 30.08 in 0.5 mi SE 4.6 mph - N/A Fog Fog
8:53 AM 63.0 °F 63.0 °F 100% 30.08 in 0.2 mi SSE 5.8 mph - N/A Fog Fog
9:16 AM 62.6 °F 62.6 °F 100% 30.09 in 1.0 mi SE 3.5 mph - N/A   Overcast
9:36 AM 64.4 °F 64.4 °F 100% 30.09 in 1.5 mi Calm Calm - N/A   Overcast
9:46 AM 62.6 °F 62.6 °F 100% 30.09 in 2.0 mi Calm Calm - N/A   Overcast
9:53 AM 63.0 °F 63.0 °F 100% 30.08 in 2.5 mi SSE 3.5 mph - N/A   Overcast
10:00 AM 64.4 °F 62.6 °F 94% 30.09 in 6.0 mi Calm Calm - N/A   Overcast
10:21 AM 64.4 °F 62.6 °F 94% 30.09 in 10.0 mi Calm Calm - N/A   Overcast
10:49 AM 64.4 °F 64.4 °F 100% 30.09 in 10.0 mi Calm Calm - N/A   Overcast
10:53 AM 64.9 °F 64.0 °F 97% 30.08 in 10.0 mi Calm Calm - N/A   Overcast
11:41 AM 66.2 °F 62.6 °F 88% 30.08 in 10.0 mi SSE 3.5 mph - N/A   Overcast
11:53 AM 68.0 °F 63.0 °F 84% 30.07 in 10.0 mi SSE 5.8 mph - N/A   Overcast
12:42 PM 69.8 °F 62.6 °F 78% 30.06 in 10.0 mi SE 5.8 mph - N/A   Overcast
12:53 PM 70.0 °F 63.0 °F 78% 30.05 in 10.0 mi ESE 8.1 mph - N/A   Overcast
1:53 PM 71.1 °F 62.1 °F 73% 30.02 in 10.0 mi SE 5.8 mph - N/A   Overcast
2:19 PM 71.6 °F 62.6 °F 73% 30.03 in 10.0 mi South 3.5 mph - N/A   Overcast
2:43 PM 71.6 °F 62.6 °F 73% 30.02 in 10.0 mi South 3.5 mph - N/A   Overcast
2:53 PM 72.0 °F 62.1 °F 71% 30.01 in 10.0 mi South 4.6 mph - N/A   Overcast
3:01 PM 71.6 °F 62.6 °F 73% 30.02 in 10.0 mi Calm Calm - N/A   Overcast
3:21 PM 73.4 °F 62.6 °F 69% 30.01 in 10.0 mi SE 5.8 mph - N/A   Overcast
3:53 PM 73.0 °F 62.1 °F 68% 29.99 in 10.0 mi SSE 5.8 mph - N/A   Overcast
4:53 PM 73.9 °F 62.1 °F 66% 29.97 in 10.0 mi South 9.2 mph - N/A   Overcast
5:53 PM 72.0 °F 61.0 °F 68% 29.96 in 10.0 mi SE 5.8 mph - N/A   Overcast
6:53 PM 71.1 °F 62.1 °F 73% 29.96 in 10.0 mi SSE 6.9 mph - N/A   Overcast
7:53 PM 68.0 °F 62.1 °F 81% 29.96 in 10.0 mi SSE 6.9 mph - N/A   Mostly Cloudy
8:53 PM 66.0 °F 62.1 °F 87% 29.97 in 10.0 mi SSE 5.8 mph - N/A   Overcast
9:53 PM 64.9 °F 62.1 °F 90% 29.97 in 10.0 mi South 8.1 mph - N/A   Mostly Cloudy
10:53 PM 63.0 °F 61.0 °F 93% 29.97 in 10.0 mi South 6.9 mph - N/A   Clear
11:53 PM 62.1 °F 60.1 °F 93% 29.96 in 10.0 mi South 6.9 mph - N/A   Clear